Change the Weather History Date:

Friday, February 4, 2011

  Actual Average Record
Temperature  
Mean Temperature 34 °F 32 °F  
Max Temperature 45 °F 41 °F 70 °F (1927)
Min Temperature 22 °F 24 °F -10 °F (1970)
Degree Days  
Heating Degree Days 31 33  
Month to date heating degree days 126 132  
Since 1 July heating degree days 3501 3276  
Cooling Degree Days 0 0  
Month to date cooling degree days 0 0  
Year to date cooling degree days 0 0  
Moisture  
Dew Point 21 °F    
Average Humidity 57    
Maximum Humidity 81    
Minimum Humidity 33    
Precipitation  
Precipitation 0.00 in 0.09 in 1.19 in (1975)
Month to date precipitation 0.23 0.38  
Year to date precipitation 2.12 3.19  
Snow  
Snow 0.00 in - - ()
Month to date snowfall 0.2  
Since 1 September snowfall 78.0  
Snow Depth 0.00 in    
Sea Level Pressure  
Sea Level Pressure 30.20 in    
Wind  
Wind Speed 4 mph (SE)    
Max Wind Speed 13 mph    
Max Gust Speed 20 mph    
Visibility 10 miles    
Events      
T = Trace of Precipitation, MM = Missing Value Source: NWS Daily Summary

Daily Weather History Graph

Daily Weather History Graph

Search for Another Location

Airport or City:

Trip Planner

Search our weather history database for the weather conditions in past years. The results will help you decide how hot, cold, wet, or windy it might be!

Date:

Astronomy

Feb. 04, 2011 Rise Set
Actual Time 7:26 AM EST 5:51 PM EST
Civil Twilight 6:58 AM EST 6:18 PM EST
Nautical Twilight 6:27 AM EST 6:49 PM EST
Astronomical Twilight 5:56 AM EST 7:20 PM EST
Moon 7:55 AM EST (2/4) 7:38 PM EST (2/4)
Length of Visible Light 11h 20m
Length of Day
10h 25m
New Moon, 2% of the Moon is Illuminated
Feb 4
New Moon
Feb 11
First Quarter
Feb 18
Full
Feb 24
Last Quarter
Mar 4
New

Hourly Weather History & Observations

Time (EST) Temp. Windchill Dew Point Humidity Pressure Visibility Wind Dir Wind Speed Gust Speed Precip Events Conditions
12:51 AM 24.1 °F - 17.1 °F 75% 30.41 in 10.0 mi Calm Calm - N/A   Clear
1:51 AM 24.1 °F - 16.0 °F 71% 30.40 in 10.0 mi Calm Calm - N/A   Clear
2:51 AM 23.0 °F - 18.0 °F 81% 30.38 in 10.0 mi Calm Calm - N/A   Clear
3:51 AM 23.0 °F - 17.1 °F 78% 30.37 in 10.0 mi Calm Calm - N/A   Clear
4:51 AM 23.0 °F - 17.1 °F 78% 30.36 in 10.0 mi Calm Calm - N/A   Overcast
5:51 AM 24.1 °F - 19.0 °F 81% 30.36 in 10.0 mi Calm Calm - N/A   Overcast
6:51 AM 27.0 °F 23.0 °F 17.1 °F 66% 30.36 in 10.0 mi SSE 3.5 mph - N/A   Overcast
7:51 AM 25.0 °F 20.7 °F 19.0 °F 78% 30.35 in 10.0 mi SE 3.5 mph - N/A   Clear
8:51 AM 28.9 °F 23.9 °F 16.0 °F 58% 30.31 in 10.0 mi SE 4.6 mph - N/A   Clear
9:51 AM 32.0 °F - 17.1 °F 54% 30.30 in 10.0 mi Calm Calm - N/A   Clear
10:51 AM 36.0 °F - 16.0 °F 44% 30.28 in 10.0 mi Calm Calm - N/A   Clear
11:51 AM 41.0 °F 37.1 °F 16.0 °F 36% 30.24 in 10.0 mi SSE 5.8 mph - N/A   Clear
12:51 PM 42.1 °F 37.7 °F 15.1 °F 34% 30.21 in 10.0 mi SSE 6.9 mph - N/A   Clear
1:51 PM 44.1 °F 40.8 °F 17.1 °F 34% 30.17 in 10.0 mi SE 5.8 mph - N/A   Clear
2:51 PM 44.1 °F 41.5 °F 21.9 °F 42% 30.16 in 10.0 mi East 4.6 mph - N/A   Partly Cloudy
3:51 PM 44.1 °F 41.5 °F 21.9 °F 42% 30.14 in 10.0 mi NE 4.6 mph - N/A   Clear
4:51 PM 42.1 °F - 21.9 °F 45% 30.13 in 10.0 mi Calm Calm - N/A   Mostly Cloudy
5:51 PM 39.9 °F 35.1 °F 21.0 °F 47% 30.13 in 10.0 mi SSE 6.9 mph - N/A   Overcast
6:51 PM 37.9 °F 33.5 °F 21.0 °F 51% 30.11 in 10.0 mi SE 5.8 mph - N/A   Overcast
7:51 PM 37.9 °F 33.5 °F 23.0 °F 55% 30.09 in 10.0 mi SSE 5.8 mph - N/A   Overcast
8:51 PM 37.9 °F 32.1 °F 24.1 °F 57% 30.06 in 10.0 mi SE 8.1 mph - N/A   Overcast
9:51 PM 37.9 °F 33.5 °F 26.1 °F 62% 30.03 in 10.0 mi SE 5.8 mph - N/A   Overcast
10:37 PM 39.2 °F 35.9 °F 28.4 °F 65% 29.95 in 10.0 mi Variable 4.6 mph - N/A   Overcast
10:51 PM 39.0 °F 34.0 °F 28.9 °F 67% 29.99 in 10.0 mi SE 6.9 mph - N/A   Overcast
11:13 PM 39.2 °F 32.0 °F 30.2 °F 70% 29.93 in 10.0 mi SE 11.5 mph - N/A   Overcast
11:51 PM 39.0 °F 32.3 °F 30.0 °F 70% 29.96 in 10.0 mi SSE 10.4 mph - N/A   Overcast